Time,TemperatureF,DewpointF,PressureIn,WindDirection,WindDirectionDegrees,WindSpeedMPH,WindSpeedGustMPH,Humidity,HourlyPrecipIn,Conditions,Clouds,dailyrainin,SoftwareType,DateUTC
2013-04-13 00:03:00,65.0,51.0,29.69,NW,309,0.0,4.0,61,0.00,,,0.29,,2013-04-13 04:03:00,
2013-04-13 00:12:00,65.0,51.0,29.69,NW,309,0.0,4.0,61,0.00,,,0.29,,2013-04-13 04:12:00,
2013-04-13 00:23:00,64.0,51.0,29.69,WNW,297,0.0,5.0,62,0.00,,,0.29,,2013-04-13 04:23:00,
2013-04-13 00:33:00,64.0,49.0,29.70,NW,306,0.0,5.0,58,0.00,,,0.29,,2013-04-13 04:33:00,
2013-04-13 00:42:00,64.0,49.0,29.70,NW,306,0.0,5.0,58,0.00,,,0.29,,2013-04-13 04:42:00,
2013-04-13 00:53:00,63.0,47.0,29.70,WNW,303,0.0,0.0,55,0.00,,,0.29,,2013-04-13 04:53:00,
2013-04-13 01:02:00,63.0,48.0,29.71,WNW,303,0.0,0.0,57,0.00,,,0.29,,2013-04-13 05:02:00,
2013-04-13 01:12:00,63.0,48.0,29.71,WNW,303,0.0,0.0,57,0.00,,,0.29,,2013-04-13 05:12:00,
2013-04-13 01:22:00,63.0,47.0,29.72,North,10,0.0,0.0,55,0.00,,,0.29,,2013-04-13 05:22:00,
2013-04-13 01:32:00,63.0,45.0,29.72,WNW,297,0.0,3.0,52,0.00,,,0.29,,2013-04-13 05:32:00,
2013-04-13 01:43:00,63.0,45.0,29.72,WNW,297,0.0,3.0,52,0.00,,,0.29,,2013-04-13 05:43:00,
2013-04-13 01:53:00,62.0,46.0,29.73,WNW,293,0.0,4.0,55,0.00,,,0.29,,2013-04-13 05:53:00,
2013-04-13 02:02:00,62.0,44.0,29.73,NNE,27,0.0,8.0,52,0.00,,,0.29,,2013-04-13 06:02:00,
2013-04-13 02:12:00,62.0,44.0,29.73,NNE,27,0.0,8.0,52,0.00,,,0.29,,2013-04-13 06:12:00,
2013-04-13 02:24:00,62.0,45.0,29.73,NW,326,1.0,3.0,53,0.00,,,0.29,,2013-04-13 06:24:00,
2013-04-13 02:35:00,61.0,43.0,29.73,North,351,0.0,5.0,52,0.00,,,0.29,,2013-04-13 06:35:00,
2013-04-13 02:48:00,61.0,43.0,29.73,North,351,0.0,5.0,52,0.00,,,0.29,,2013-04-13 06:48:00,
2013-04-13 02:55:00,61.0,43.0,29.73,NW,309,0.0,4.0,52,0.00,,,0.29,,2013-04-13 06:55:00,
2013-04-13 03:05:00,61.0,43.0,29.73,NW,311,0.0,4.0,52,0.00,,,0.29,,2013-04-13 07:05:00,
2013-04-13 03:15:00,61.0,43.0,29.73,NW,311,0.0,4.0,52,0.00,,,0.29,,2013-04-13 07:15:00,
2013-04-13 03:24:00,61.0,44.0,29.74,NW,308,0.0,1.0,53,0.00,,,0.29,,2013-04-13 07:24:00,
2013-04-13 03:35:00,60.0,43.0,29.75,NW,319,0.0,1.0,53,0.00,,,0.29,,2013-04-13 07:35:00,
2013-04-13 03:45:00,60.0,43.0,29.75,NW,319,0.0,1.0,53,0.00,,,0.29,,2013-04-13 07:45:00,
2013-04-13 04:15:00,59.0,43.0,29.76,NNE,29,0.0,0.0,55,0.00,,,0.29,,2013-04-13 08:15:00,
2013-04-13 04:25:00,58.0,42.0,29.76,NW,318,0.0,2.0,56,0.00,,,0.29,,2013-04-13 08:25:00,
2013-04-13 04:35:00,58.0,44.0,29.76,NW,306,0.0,2.0,59,0.00,,,0.29,,2013-04-13 08:35:00,
2013-04-13 04:45:00,58.0,44.0,29.76,NW,306,0.0,2.0,59,0.00,,,0.29,,2013-04-13 08:45:00,
2013-04-13 04:55:00,57.0,43.0,29.77,NW,325,0.0,1.0,60,0.00,,,0.29,,2013-04-13 08:55:00,
2013-04-13 05:05:00,57.0,42.0,29.78,ENE,60,0.0,1.0,58,0.00,,,0.29,,2013-04-13 09:05:00,
2013-04-13 05:24:00,57.0,40.0,29.78,NNW,338,0.0,4.0,53,0.00,,,0.29,,2013-04-13 09:24:00,
2013-04-13 05:37:00,57.0,40.0,29.79,West,279,0.0,3.0,52,0.00,,,0.29,,2013-04-13 09:37:00,
2013-04-13 05:55:00,57.0,40.0,29.79,NNW,333,0.0,1.0,53,0.00,,,0.29,,2013-04-13 09:55:00,
2013-04-13 06:05:00,56.0,40.0,29.80,North,356,0.0,5.0,54,0.00,,,0.18,,2013-04-13 10:05:00,
2013-04-13 06:15:00,55.0,40.0,29.80,NNE,17,0.0,0.0,56,0.00,,,0.18,,2013-04-13 10:15:00,
2013-04-13 06:24:00,55.0,40.0,29.80,NNE,17,0.0,0.0,56,0.00,,,0.18,,2013-04-13 10:24:00,
2013-04-13 06:37:00,54.0,39.0,29.81,North,360,0.0,1.0,57,0.00,,,0.18,,2013-04-13 10:37:00,
2013-04-13 06:46:00,54.0,39.0,29.81,North,360,0.0,1.0,57,0.00,,,0.18,,2013-04-13 10:46:00,
2013-04-13 06:55:00,54.0,40.0,29.82,North,360,0.0,0.0,58,0.00,,,0.18,,2013-04-13 10:55:00,
2013-04-13 07:06:00,53.0,39.0,29.83,North,360,0.0,0.0,60,0.00,,,0.13,,2013-04-13 11:06:00,
2013-04-13 07:13:00,53.0,39.0,29.83,North,360,0.0,0.0,60,0.00,,,0.13,,2013-04-13 11:13:00,
2013-04-13 07:24:00,53.0,41.0,29.84,North,360,0.0,0.0,64,0.00,,,0.13,,2013-04-13 11:24:00,
2013-04-13 07:34:00,52.0,41.0,29.85,North,360,0.0,0.0,65,0.00,,,0.13,,2013-04-13 11:34:00,
2013-04-13 07:45:00,52.0,41.0,29.85,North,360,0.0,0.0,65,0.00,,,0.13,,2013-04-13 11:45:00,
2013-04-13 07:54:00,52.0,41.0,29.86,North,360,0.0,0.0,67,0.00,,,0.13,,2013-04-13 11:54:00,
2013-04-13 08:08:00,53.0,41.0,29.86,North,360,0.0,0.0,64,0.00,,,0.08,,2013-04-13 12:08:00,
2013-04-13 08:15:00,53.0,41.0,29.86,North,360,0.0,0.0,64,0.00,,,0.08,,2013-04-13 12:15:00,
2013-04-13 08:25:00,54.0,42.0,29.87,North,5,0.0,0.0,63,0.00,,,0.08,,2013-04-13 12:25:00,
2013-04-13 08:35:00,56.0,40.0,29.87,North,360,0.0,0.0,54,0.00,,,0.08,,2013-04-13 12:35:00,
2013-04-13 08:47:00,56.0,40.0,29.87,North,360,0.0,0.0,54,0.00,,,0.08,,2013-04-13 12:47:00,
2013-04-13 08:55:00,57.0,39.0,29.88,North,360,0.0,0.0,51,0.00,,,0.08,,2013-04-13 12:55:00,
2013-04-13 09:06:00,59.0,38.0,29.88,NNE,18,0.0,1.0,46,0.00,,,0.07,,2013-04-13 13:06:00,
2013-04-13 09:15:00,59.0,38.0,29.88,NNE,18,0.0,1.0,46,0.00,,,0.07,,2013-04-13 13:15:00,
2013-04-13 09:30:00,61.0,40.0,29.88,North,10,1.0,5.0,45,0.00,,,0.07,,2013-04-13 13:30:00,
2013-04-13 09:48:00,62.0,39.0,29.89,NW,326,0.0,7.0,43,0.00,,,0.07,,2013-04-13 13:48:00,
2013-04-13 09:57:00,64.0,41.0,29.89,North,360,0.0,7.0,43,0.00,,,0.07,,2013-04-13 13:57:00,
2013-04-13 10:24:00,64.0,37.0,29.89,NNW,345,0.0,10.0,37,0.00,,,0.07,,2013-04-13 14:24:00,
2013-04-13 10:39:00,65.0,38.0,29.89,NW,317,1.0,10.0,37,0.00,,,0.07,,2013-04-13 14:39:00,
2013-04-13 11:05:00,66.0,40.0,29.90,North,360,0.0,11.0,38,0.00,,,0.07,,2013-04-13 15:05:00,
2013-04-13 11:14:00,66.0,40.0,29.90,North,360,0.0,11.0,38,0.00,,,0.07,,2013-04-13 15:14:00,
2013-04-13 11:29:00,66.0,38.0,29.90,East,93,0.0,5.0,35,0.00,,,0.07,,2013-04-13 15:29:00,
2013-04-13 11:44:00,67.0,39.0,29.89,NNW,341,0.0,10.0,36,0.00,,,0.07,,2013-04-13 15:44:00,
2013-04-13 11:58:00,67.0,41.0,29.90,East,87,0.0,6.0,39,0.00,,,0.07,,2013-04-13 15:58:00,
2013-04-13 12:07:00,67.0,39.0,29.89,North,356,2.0,9.0,36,0.00,,,0.06,,2013-04-13 16:07:00,
2013-04-13 12:15:00,67.0,39.0,29.89,North,356,2.0,9.0,36,0.00,,,0.06,,2013-04-13 16:15:00,
2013-04-13 12:25:00,68.0,39.0,29.89,NNW,328,0.0,7.0,35,0.00,,,0.06,,2013-04-13 16:25:00,
2013-04-13 12:46:00,69.0,39.0,29.89,NW,314,0.0,7.0,34,0.00,,,0.06,,2013-04-13 16:46:00,
2013-04-13 12:57:00,69.0,38.0,29.89,NW,304,0.0,9.0,32,0.00,,,0.06,,2013-04-13 16:57:00,
2013-04-13 13:07:00,70.0,38.0,29.89,WNW,299,0.0,7.0,31,0.00,,,0.06,,2013-04-13 17:07:00,
2013-04-13 13:21:00,70.0,38.0,29.89,WNW,299,0.0,7.0,31,0.00,,,0.06,,2013-04-13 17:21:00,
2013-04-13 13:38:00,70.0,38.0,29.88,NE,40,0.0,5.0,31,0.00,,,0.06,,2013-04-13 17:38:00,
2013-04-13 13:44:00,70.0,38.0,29.88,NE,40,0.0,5.0,31,0.00,,,0.06,,2013-04-13 17:44:00,
2013-04-13 14:04:00,72.0,40.0,29.88,SSW,210,1.0,9.0,31,0.00,,,0.06,,2013-04-13 18:04:00,
2013-04-13 14:15:00,72.0,38.0,29.88,WSW,241,0.0,10.0,29,0.00,,,0.00,,2013-04-13 18:15:00,
2013-04-13 14:33:00,73.0,39.0,29.87,NNW,328,2.0,10.0,29,0.00,,,0.00,,2013-04-13 18:33:00,
2013-04-13 14:42:00,73.0,39.0,29.87,NNW,328,2.0,10.0,29,0.00,,,0.00,,2013-04-13 18:42:00,
2013-04-13 14:53:00,73.0,38.0,29.87,NW,307,0.0,7.0,28,0.00,,,0.00,,2013-04-13 18:53:00,
2013-04-13 15:03:00,74.0,39.0,29.86,NW,307,1.0,11.0,28,0.00,,,0.00,,2013-04-13 19:03:00,
2013-04-13 15:12:00,74.0,39.0,29.86,NW,307,1.0,11.0,28,0.00,,,0.00,,2013-04-13 19:12:00,
2013-04-13 15:22:00,75.0,39.0,29.86,NW,326,0.0,4.0,27,0.00,,,0.00,,2013-04-13 19:22:00,
2013-04-13 15:32:00,74.0,37.0,29.86,NNE,29,0.0,7.0,26,0.00,,,0.00,,2013-04-13 19:32:00,
2013-04-13 15:42:00,74.0,37.0,29.86,NNE,29,0.0,7.0,26,0.00,,,0.00,,2013-04-13 19:42:00,
2013-04-13 15:53:00,75.0,40.0,29.84,NW,318,0.0,9.0,28,0.00,,,0.00,,2013-04-13 19:53:00,
2013-04-13 16:02:00,75.0,38.0,29.84,NW,317,4.0,7.0,26,0.00,,,0.00,,2013-04-13 20:02:00,
2013-04-13 16:12:00,75.0,38.0,29.84,NW,317,4.0,7.0,26,0.00,,,0.00,,2013-04-13 20:12:00,
2013-04-13 16:22:00,75.0,38.0,29.84,WNW,299,0.0,7.0,26,0.00,,,0.00,,2013-04-13 20:22:00,
2013-04-13 16:32:00,76.0,39.0,29.83,WSW,247,2.0,8.0,26,0.00,,,0.00,,2013-04-13 20:32:00,
2013-04-13 16:42:00,76.0,39.0,29.83,WSW,247,2.0,8.0,26,0.00,,,0.00,,2013-04-13 20:42:00,
2013-04-13 16:52:00,75.0,37.0,29.83,NW,320,2.0,8.0,25,0.00,,,0.00,,2013-04-13 20:52:00,
2013-04-13 17:02:00,76.0,41.0,29.83,NW,326,0.0,6.0,28,0.00,,,0.00,,2013-04-13 21:02:00,
2013-04-13 17:12:00,76.0,41.0,29.83,NW,326,0.0,6.0,28,0.00,,,0.00,,2013-04-13 21:12:00,
2013-04-13 17:22:00,76.0,39.0,29.83,South,176,0.0,11.0,26,0.00,,,0.00,,2013-04-13 21:22:00,
2013-04-13 17:33:00,76.0,39.0,29.83,West,270,1.0,6.0,26,0.00,,,0.00,,2013-04-13 21:33:00,
2013-04-13 17:43:00,76.0,39.0,29.83,West,270,1.0,6.0,26,0.00,,,0.00,,2013-04-13 21:43:00,
2013-04-13 17:53:00,76.0,39.0,29.83,NW,311,1.0,9.0,26,0.00,,,0.00,,2013-04-13 21:53:00,
2013-04-13 18:03:00,75.0,38.0,29.83,ESE,106,0.0,6.0,26,0.00,,,0.00,,2013-04-13 22:03:00,
2013-04-13 18:13:00,75.0,38.0,29.83,ESE,106,0.0,6.0,26,0.00,,,0.00,,2013-04-13 22:13:00,
2013-04-13 18:22:00,74.0,37.0,29.83,WSW,243,0.0,4.0,26,0.00,,,0.00,,2013-04-13 22:22:00,
2013-04-13 18:33:00,74.0,37.0,29.83,West,262,0.0,6.0,26,0.00,,,0.00,,2013-04-13 22:33:00,
2013-04-13 18:42:00,74.0,37.0,29.83,West,262,0.0,6.0,26,0.00,,,0.00,,2013-04-13 22:42:00,
2013-04-13 18:53:00,74.0,37.0,29.83,NNE,19,0.0,2.0,26,0.00,,,0.00,,2013-04-13 22:53:00,
2013-04-13 19:02:00,74.0,37.0,29.83,WNW,291,0.0,1.0,26,0.00,,,0.00,,2013-04-13 23:02:00,
2013-04-13 19:12:00,73.0,37.0,29.84,NW,310,0.0,4.0,27,0.00,,,0.00,,2013-04-13 23:12:00,
2013-04-13 19:22:00,73.0,37.0,29.84,NW,310,0.0,4.0,27,0.00,,,0.00,,2013-04-13 23:22:00,
2013-04-13 19:32:00,72.0,38.0,29.84,NW,310,0.0,0.0,29,0.00,,,0.00,,2013-04-13 23:32:00,
2013-04-13 19:42:00,72.0,38.0,29.84,NW,310,0.0,0.0,29,0.00,,,0.00,,2013-04-13 23:42:00,
2013-04-13 19:53:00,70.0,38.0,29.84,NW,310,0.0,0.0,31,0.00,,,0.00,,2013-04-13 23:53:00,
2013-04-13 20:03:00,68.0,41.0,29.85,NW,310,0.0,0.0,38,0.00,,,0.00,,2013-04-14 00:03:00,
2013-04-13 20:12:00,68.0,41.0,29.85,NW,310,0.0,0.0,38,0.00,,,0.00,,2013-04-14 00:12:00,
2013-04-13 20:22:00,66.0,40.0,29.86,NW,310,0.0,0.0,38,0.00,,,0.00,,2013-04-14 00:22:00,
2013-04-13 20:32:00,65.0,41.0,29.86,NW,310,0.0,0.0,42,0.00,,,0.00,,2013-04-14 00:32:00,
2013-04-13 20:42:00,65.0,41.0,29.86,NW,310,0.0,0.0,42,0.00,,,0.00,,2013-04-14 00:42:00,
2013-04-13 20:52:00,64.0,42.0,29.86,NW,310,0.0,0.0,44,0.00,,,0.00,,2013-04-14 00:52:00,
2013-04-13 21:02:00,62.0,43.0,29.86,NW,310,0.0,0.0,49,0.00,,,0.00,,2013-04-14 01:02:00,
2013-04-13 21:12:00,62.0,43.0,29.86,NW,310,0.0,0.0,49,0.00,,,0.00,,2013-04-14 01:12:00,
2013-04-13 21:22:00,61.0,44.0,29.88,NW,310,0.0,0.0,53,0.00,,,0.00,,2013-04-14 01:22:00,
2013-04-13 21:32:00,60.0,45.0,29.88,NW,310,0.0,0.0,57,0.00,,,0.00,,2013-04-14 01:32:00,
2013-04-13 21:42:00,60.0,45.0,29.88,NW,310,0.0,0.0,57,0.00,,,0.00,,2013-04-14 01:42:00,
2013-04-13 21:53:00,59.0,45.0,29.89,NW,310,0.0,0.0,60,0.00,,,0.00,,2013-04-14 01:53:00,
2013-04-13 22:02:00,58.0,46.0,29.90,NW,310,0.0,0.0,64,0.00,,,0.00,,2013-04-14 02:02:00,
2013-04-13 22:12:00,57.0,45.0,29.91,NW,310,0.0,0.0,65,0.00,,,0.00,,2013-04-14 02:12:00,
2013-04-13 22:22:00,57.0,45.0,29.91,NW,310,0.0,0.0,65,0.00,,,0.00,,2013-04-14 02:22:00,
2013-04-13 22:32:00,57.0,46.0,29.91,NW,310,0.0,0.0,66,0.00,,,0.00,,2013-04-14 02:32:00,
2013-04-13 22:42:00,57.0,46.0,29.91,NW,310,0.0,0.0,66,0.00,,,0.00,,2013-04-14 02:42:00,
2013-04-13 22:53:00,56.0,45.0,29.91,NW,310,0.0,0.0,67,0.00,,,0.00,,2013-04-14 02:53:00,
2013-04-13 23:03:00,55.0,46.0,29.92,NW,310,0.0,0.0,71,0.00,,,0.00,,2013-04-14 03:03:00,
2013-04-13 23:12:00,55.0,46.0,29.92,NW,310,0.0,0.0,71,0.00,,,0.00,,2013-04-14 03:12:00,
2013-04-13 23:22:00,55.0,46.0,29.92,NW,310,0.0,0.0,71,0.00,,,0.00,,2013-04-14 03:22:00,
2013-04-13 23:33:00,54.0,46.0,29.92,NW,310,0.0,0.0,73,0.00,,,0.00,,2013-04-14 03:33:00,
2013-04-13 23:42:00,54.0,46.0,29.92,NW,310,0.0,0.0,73,0.00,,,0.00,,2013-04-14 03:42:00,
2013-04-13 23:53:00,54.0,46.0,29.93,NW,310,0.0,0.0,75,0.00,,,0.00,,2013-04-14 03:53:00,